Flag for Canada Weather past 2 weeks in Newmarket, Ontario, Canada

Now
-4 °F

Clear.


Feels Like: -4 °F
Forecast: -2 / 20 °F
Wind: 2 mph from South

Location: Borden

Current Time: Feb 27, 2015 at 9:47:15 PM

Latest Report: Feb 27, 2015 at 9:00 PM


Visibility: 9 mi

Pressure: 30.63 "Hg

Humidity: 71%

Dew point: -11 °F

Location of NewmarketLocation

Historic Weather in Newmarket — Graph

°F

Newmarket temperature yesterday

Maximum temperature yesterday: 9 °F (at 12:00 PM)
Minimum temperature yesterday: -17 °F (at 7:00 AM)
Average temperature yesterday: -4 °F

Past Weeks' High & Low Weather Summary

 TemperatureHumidityPressure
High19 °F (Feb 22, 10:00 AM)100% (Feb 21, 7:00 PM)30.62 "Hg (Feb 21, 7:00 PM)
Low-33 °F (Feb 16, 7:00 AM)24% (Feb 17, 2:00 PM)29.55 "Hg (Feb 25, 1:00 AM)
Average1 °F67%30.11 "Hg
* Reported Feb 12 8:00 PM — Feb 27 8:00 PM, Newmarket, Weather by CustomWeather, © 2015

Note: Actual official high and low records may vary slightly from our data, if they occured in-between our weather recording intervals... More about our weather records

Advertising

Newmarket weather history for previous 24 hours

 ConditionsComfort  
Time TempWeatherWind HumidityBarometerVisibility
8:00 PM
Fri, Feb 27
-2 °FClear.No wind71%30.62 "Hg9 mi
7:00 PM7 °FClear.6 mph61%30.60 "Hg9 mi
6:00 PM9 °FSunny.8 mph56%30.58 "Hg9 mi
5:00 PM12 °FPassing clouds.12 mph52%30.56 "Hg9 mi
4:00 PM14 °FScattered clouds.7 mph48%30.54 "Hg9 mi
3:00 PM14 °FPartly sunny.10 mph52%30.52 "Hg9 mi
2:00 PM14 °FPartly sunny.12 mph52%30.51 "Hg9 mi
1:00 PM12 °FPartly sunny.13 mph62%30.52 "Hg9 mi
12:00 PM10 °FOvercast.10 mph61%30.52 "Hg9 mi
11:00 AM10 °FPassing clouds.13 mph52%30.51 "Hg9 mi
10:00 AM7 °FSunny.12 mph61%30.49 "Hg9 mi
9:00 AM-4 °FSunny.No wind77%30.49 "Hg9 mi
8:00 AM-17 °FSunny.No wind76%30.47 "Hg9 mi
7:00 AM-20 °FSunny.No wind68%30.45 "Hg9 mi
6:00 AM-20 °FClear.2 mph68%30.42 "Hg9 mi
5:00 AM-18 °FPassing clouds.3 mph75%30.38 "Hg9 mi
4:00 AM-17 °FPassing clouds.3 mph69%30.37 "Hg9 mi
3:00 AM-17 °FClear.2 mph69%30.37 "Hg9 mi
2:00 AM-17 °FClear.2 mph63%30.36 "Hg9 mi
1:00 AM-17 °FClear.2 mph69%30.34 "Hg9 mi
12:00 AM-15 °FClear.No wind69%30.33 "Hg9 mi
11:00 PM
Thu, Feb 26
-13 °FClear.No wind76%30.32 "Hg9 mi
10:00 PM-9 °FClear.No wind70%30.32 "Hg9 mi
9:00 PM-9 °FClear.3 mph77%30.31 "Hg9 mi
Weather by CustomWeather, © 2015

See weather overviewHow to use our weather pages